DW4360 Weather Reports


time (UTC)temp
C
wind
direction
speed
KPH
gust
KPH
rain 1hr
cm
rain 24hr
cm
rain mn
cm
humidity
%
barometer
mb
20260905044547 13 173 0.0 0.0 0.00 0.00 0.15 93 1014.5
20260905043545 13 172 0.0 0.0 0.00 0.00 0.15 92 1014.5
20260905042544 13 172 0.0 0.0 0.00 0.00 0.15 91 1014.6
20260905041543 13 172 0.0 0.0 0.00 0.00 0.15 91 1014.5
20260905040542 13 172 0.0 0.0 0.00 0.00 0.15 91 1014.5
20260905035542 13 172 0.0 0.0 0.00 0.00 0.15 90 1014.3
20260905034541 13 172 0.0 0.0 0.00 0.00 0.15 90 1014.2
20260905033539 14 172 0.0 0.0 0.00 0.00 0.15 90 1014.1
20260905032539 14 172 0.0 0.0 0.00 0.00 0.15 90 1014.0
20260905031539 14 172 0.0 0.0 0.00 0.00 0.15 90 1013.9
20260905030536 15 172 0.0 0.0 0.00 0.00 0.15 89 1013.8
20260905025535 15 172 0.0 0.0 0.00 0.00 0.15 89 1013.7
20260905024534 15 172 0.0 0.0 0.00 0.00 0.15 89 1013.8
20260905023534 15 172 0.0 0.0 0.00 0.00 0.15 88 1013.7
20260905022532 15 172 0.0 0.0 0.00 0.00 0.15 88 1013.8
20260905021531 15 172 0.0 0.0 0.00 0.00 0.13 88 1013.8
20260905020530 16 172 0.0 0.0 0.00 0.00 0.13 88 1013.7
20260905015529 16 172 0.0 0.0 0.00 0.00 0.13 88 1013.5
20260905014528 16 172 0.0 0.0 0.00 0.00 0.13 87 1013.5
20260905012526 16 172 0.0 0.0 0.00 0.00 0.13 88 1013.3
20260905011525 16 172 0.0 0.0 0.00 0.00 0.13 88 1013.2
20260905010524 16 172 0.0 0.0 0.00 0.00 0.13 88 1013.2
20260905005523 16 172 0.0 0.0 0.00 0.00 0.13 88 1013.1
20260905003521 16 172 0.0 0.0 0.00 0.00 0.13 87 1013.1
20260905002520 16 172 0.0 0.0 0.00 0.00 0.13 88 1013.0
20260905001519 16 172 0.0 0.0 0.00 0.00 0.13 88 1013.0
20260905000518 16 172 0.0 0.0 0.00 0.00 0.10 88 1013.1
20260904235517 16 171 0.0 0.0 0.00 0.00 0.10 89 1013.2
20260904233515 16 171 0.0 0.0 0.00 0.00 0.10 89 1013.2
20260904231513 15 171 0.0 0.0 0.00 0.00 0.10 92 1013.0
20260904230512 15 171 0.0 0.0 0.00 0.00 0.10 91 1013.0
20260904225511 14 171 0.0 0.0 0.00 0.00 0.08 90 1013.0
20260904224510 14 171 0.0 0.0 0.00 0.00 0.08 90 1012.9
20260904223509 14 171 0.0 0.0 0.00 0.00 0.08 89 1013.0
20260904222508 14 171 0.0 0.0 0.00 0.00 0.08 87 1012.9
20260904220506 15 171 0.0 0.0 0.00 0.00 0.05 85 1013.0
20260904215505 16 172 0.0 0.0 0.00 0.00 0.05 85 1012.9
20260904213503 17 224 0.0 0.0 0.00 0.00 0.03 81 1012.5
20260904212502 18 224 3.2 0.0 0.00 0.00 0.03 76 1012.4
20260904211501 19 242 0.0 0.0 0.00 0.00 0.03 67 1012.1
20260904210500 20 232 0.0 0.0 0.00 0.00 0.03 63 1012.0
20260904203457 21 360 0.0 0.0 0.00 0.00 0.03 61 1011.7
20260904202456 21 360 0.0 0.0 0.00 0.00 0.03 64 1011.7
20260904201454 20 323 0.0 0.0 0.00 0.00 0.03 63 1011.8
20260904200454 19 324 0.0 0.0 0.00 0.00 0.03 70 1011.8
20260904195452 18 330 6.4 0.0 0.00 0.00 0.03 72 1011.9
20260904194451 18 331 8.0 0.0 0.00 0.00 0.03 70 1012.0
20260904193452 19 321 0.0 0.0 0.00 0.00 0.03 70 1012.0
20260904192450 19 327 4.8 0.0 0.00 0.00 0.03 71 1012.0
20260904191448 19 331 0.0 0.0 0.00 0.00 0.03 69 1012.1
20260904190447 19 330 0.0 0.0 0.00 0.00 0.03 68 1012.1
20260904185446 18 119 0.0 0.0 0.00 0.00 0.03 68 1012.1
20260904184445 18 119 0.0 0.0 0.00 0.00 0.03 67 1012.1
20260904183445 18 132 0.0 0.0 0.00 0.00 0.03 70 1012.0
20260904182443 18 132 0.0 0.0 0.00 0.00 0.03 71 1012.0
20260904181442 18 127 6.4 0.0 0.00 0.00 0.03 72 1012.0
20260904180441 17 122 0.0 0.0 0.00 0.00 0.03 74 1011.9
20260904175440 17 129 0.0 0.0 0.00 0.00 0.03 74 1011.9
20260904174440 17 133 0.0 0.0 0.00 0.00 0.03 77 1011.9
20260904173438 16 133 0.0 0.0 0.00 0.00 0.03 80 1011.9
20260904172437 16 133 0.0 0.0 0.00 0.00 0.03 84 1011.8
20260904171436 16 132 0.0 0.0 0.00 0.00 0.03 87 1011.7
20260904170436 15 86 3.2 0.0 0.00 0.00 0.03 87 1011.8
20260904165434 15 79 0.0 0.0 0.00 0.00 0.03 90 1011.7
20260904164433 14 72 0.0 0.0 0.00 0.00 0.03 91 1011.7
20260904163432 14 169 0.0 0.0 0.00 0.00 0.03 92 1011.6
20260904162431 13 170 0.0 0.0 0.00 0.00 0.03 93 1011.6
20260904161430 13 170 0.0 0.0 0.00 0.00 0.03 93 1011.5
20260904160429 13 170 0.0 0.0 0.00 0.00 0.03 93 1011.6
20260904155428 13 170 0.0 0.0 0.00 0.00 0.00 93 1011.6
20260904154427 13 170 0.0 0.0 0.00 0.00 0.00 93 1011.7
20260904153427 13 170 0.0 0.0 0.00 0.00 0.00 93 1011.7
20260904152426 12 170 0.0 0.0 0.00 0.00 0.18 93 1011.6
20260904150423 12 170 0.0 0.0 0.00 0.00 0.18 93 1011.4
20260904145422 12 170 0.0 0.0 0.00 0.00 0.18 93 1011.3
20260904143420 12 170 0.0 0.0 0.00 0.00 0.18 93 1011.0
20260904142419 12 170 0.0 0.0 0.00 0.00 0.18 93 1010.9
20260904141418 12 170 0.0 0.0 0.00 0.00 0.18 93 1010.8
20260904140417 12 170 0.0 0.0 0.00 0.00 0.18 93 1010.8
20260904134415 12 170 0.0 0.0 0.00 0.00 0.18 93 1010.6
20260904133414 12 170 0.0 0.0 0.00 0.00 0.18 93 1010.5
20260904132413 12 170 0.0 0.0 0.00 0.00 0.18 93 1010.4
20260904131412 12 170 0.0 0.0 0.00 0.00 0.18 93 1010.5
20260904130411 12 170 0.0 0.0 0.00 0.00 0.18 93 1010.5
20260904125410 12 170 0.0 0.0 0.00 0.00 0.18 93 1010.3
20260904124409 12 170 0.0 0.0 0.00 0.00 0.18 92 1010.2
20260904123408 12 170 0.0 0.0 0.00 0.00 0.15 92 1010.1
20260904122407 12 170 0.0 0.0 0.00 0.00 0.15 92 1010.1
20260904121406 12 170 0.0 0.0 0.00 0.00 0.15 92 1009.9
20260904120405 12 170 0.0 0.0 0.00 0.00 0.13 92 1009.9
20260904115404 12 170 0.0 0.0 0.00 0.00 0.13 92 1009.9
20260904114403 12 170 0.0 0.0 0.00 0.00 0.13 92 1009.9
20260904113402 12 170 0.0 0.0 0.00 0.00 0.10 92 1009.7
20260904112401 12 169 0.0 0.0 0.00 0.00 0.10 92 1009.6
20260904110359 12 169 0.0 0.0 0.00 0.00 0.08 92 1009.6
20260904105358 12 169 0.0 0.0 0.00 0.00 0.08 92 1009.6
20260904104357 12 169 0.0 0.0 0.00 0.00 0.08 91 1009.6
20260904103356 12 169 0.0 0.0 0.00 0.00 0.08 91 1009.5
20260904102355 12 169 0.0 0.0 0.00 0.00 0.08 91 1009.4
20260904101354 12 169 0.0 0.0 0.00 0.00 0.08 91 1009.3
20260904100353 12 169 0.0 0.0 0.00 0.00 0.08 91 1009.3
20260904095352 12 169 0.0 0.0 0.00 0.00 0.08 91 1009.2
20260904094350 12 169 0.0 0.0 0.00 0.00 0.08 91 1009.2
20260904093349 13 169 0.0 0.0 0.00 0.00 0.08 91 1009.2
20260904092349 13 169 0.0 0.0 0.00 0.00 0.08 91 1009.2
20260904090347 13 169 0.0 0.0 0.00 0.00 0.08 91 1009.1
20260904085346 13 169 0.0 0.0 0.00 0.00 0.08 90 1009.1
20260904084344 13 169 0.0 0.0 0.00 0.00 0.08 90 1009.0
20260904083344 13 169 0.0 0.0 0.00 0.00 0.08 90 1009.1
20260904081341 13 169 0.0 0.0 0.00 0.00 0.08 90 1009.0
20260904080341 13 169 0.0 0.0 0.00 0.00 0.08 90 1009.1
20260904074339 13 169 0.0 0.0 0.00 0.00 0.08 90 1009.1
20260904073337 13 169 0.0 0.0 0.00 0.00 0.08 90 1009.1
20260904072336 13 169 0.0 0.0 0.00 0.00 0.08 90 1009.1
20260904071336 13 169 0.0 0.0 0.00 0.00 0.08 90 1009.1
20260904070334 13 169 0.0 0.0 0.00 0.00 0.08 90 1009.0
20260904065334 13 169 0.0 0.0 0.00 0.00 0.08 90 1009.0
20260904063332 13 169 0.0 0.0 0.00 0.00 0.08 89 1009.1
20260904062331 13 169 0.0 0.0 0.00 0.00 0.08 89 1008.9
20260904061330 13 169 0.0 0.0 0.00 0.00 0.08 90 1008.9
20260904060328 13 169 0.0 0.0 0.00 0.00 0.08 90 1008.9
20260904055328 13 169 0.0 0.0 0.00 0.00 0.08 90 1009.0
20260904054327 13 169 0.0 0.0 0.00 0.00 0.08 90 1009.1
20260904053325 13 169 0.0 0.0 0.00 0.00 0.08 89 1009.1
20260904052324 13 169 0.0 0.0 0.00 0.00 0.08 89 1009.1
20260904051323 13 169 0.0 0.0 0.00 0.00 0.08 88 1009.1
20260904050322 13 169 0.0 0.0 0.00 0.00 0.08 88 1009.2